Location: PACMO
(41.3967°N, 90.3760°W)
Time: 13:11:49
(UTC-05:00)

Amateur Radio Satellites - All Passes

Search period start: 01 August 2015 12:41
Search period end: 02 August 2015 12:41
Location: PACMO, 41.3967°N, 90.3760°W

Satellite Date Start Highest point End Downlink Frequencies (MHz)
Time Altitude Azimuth
AIST 1 01 Aug 12:42:07 12:46:28 71° 279° (W) 12:50:48
Oscar 19 01 Aug 12:48:58 12:53:20 30° 68° (ENE) 12:57:48 437.125/150
50 SAT 01 Aug 12:56:32 12:59:45 23° 291° (WNW) 13:02:54 437.505
BUGSAT 1 01 Aug 12:57:27 12:59:35 13° 270° (W) 13:01:32 437.445
UKube-1 01 Aug 13:04:06 13:07:13 19° 294° (WNW) 13:10:11 .
AISAT 01 Aug 13:08:36 13:12:15 25° 292° (WNW) 13:15:49 437.250
O/OREOS (USA 219) 01 Aug 13:09:43 13:12:17 14° 260° (W) 13:14:39 437.305
Cosmos 2491 01 Aug 13:11:38 13:20:25 76° 279° (W) 13:29:12 435.465 / 435.565
CUBEBUG 1 01 Aug 13:21:49 13:25:37 30° 290° (WNW) 13:29:22 437.445
JAS-2 01 Aug 13:31:45 13:34:04 12° 52° (NE) 13:36:50 435.910
SWISSCUBE 01 Aug 13:36:42 13:38:51 13° 88° (E) 13:41:15 437.505
VELOX 1 01 Aug 13:49:40 13:50:55 11° 298° (WNW) 13:51:57 145.980
Gurwin Techsat 1B 01 Aug 13:49:55 13:54:38 34° 68° (ENE) 13:59:26 435.225
SPROUT 01 Aug 13:56:29 14:00:32 40° 288° (WNW) 14:04:32 437.525
ITUPSAT 1 01 Aug 13:56:51 14:00:14 20° 92° (E) 14:03:45 437.325
ESTCUBE 1 01 Aug 14:02:07 14:03:47 12° 298° (WNW) 14:05:13 437.505/2401.250
TISAT 1 01 Aug 14:07:02 14:11:07 49° 287° (WNW) 14:15:11 437.305
ITAMSAT 1 01 Aug 14:09:57 14:14:55 47° 71° (ENE) 14:19:55 435.822/435.867
AO-7 01 Aug 14:13:32 14:19:19 22° 53° (NE) 14:25:23 29.400- 29.500
Cosmos 2504 01 Aug 14:13:55 14:22:22 75° 81° (E) 14:31:00 435.465 / 435.565
Oscar 19 01 Aug 14:28:02 14:32:38 33° 264° (W) 14:37:14 437.125/150
DANDE 01 Aug 14:33:41 14:34:27 11° 72° (ENE) 14:35:31 436.750
YUBILEINY 01 Aug 14:40:40 14:42:33 10° 286° (WNW) 14:43:37 435.215
CUSAT 1 01 Aug 14:48:58 14:52:39 29° 77° (ENE) 14:57:21 437.405
BEESAT 01 Aug 14:51:48 14:56:36 73° 101° (ESE) 15:01:22 436.000
JAS-2 01 Aug 15:11:45 15:17:45 67° 72° (ENE) 15:24:40 435.910
SWISSCUBE 01 Aug 15:12:30 15:17:15 64° 286° (WNW) 15:21:56 437.505
STARS 01 Aug 15:12:39 15:13:56 11° 88° (E) 15:15:29 437.465
Cosmos 2491 01 Aug 15:14:01 15:19:09 16° 303° (WNW) 15:23:45 435.465 / 435.565
GONETS M04 01 Aug 15:26:39 15:29:11 12° 53° (NE) 15:32:23
Gurwin Techsat 1B 01 Aug 15:29:58 15:34:39 30° 265° (W) 15:39:17 435.225
ITUPSAT 1 01 Aug 15:33:49 15:38:23 44° 289° (WNW) 15:42:53 437.325
KKS-1 01 Aug 15:38:09 15:42:17 37° 97° (E) 15:46:27 437.445
HORYU 2 01 Aug 15:42:30 15:46:46 49° 72° (ENE) 15:51:06 437.375
ITAMSAT 1 01 Aug 15:50:39 15:54:42 22° 268° (W) 15:58:36 435.822/435.867
AO-7 01 Aug 16:02:47 16:11:09 89° 74° (ENE) 16:19:36 29.400- 29.500
Cosmos 2504 01 Aug 16:07:28 16:13:54 24° 278° (W) 16:20:04 435.465 / 435.565
DANDE 01 Aug 16:13:50 16:17:34 57° 261° (W) 16:22:33 436.750
CUSAT 1 01 Aug 16:31:27 16:35:08 26° 264° (W) 16:39:37 437.405
BEESAT 01 Aug 16:31:32 16:33:54 13° 298° (WNW) 16:36:03 436.000
SO-50 01 Aug 16:32:14 16:34:11 12° 32° (NNE) 16:36:17 436.795
MOZHAYETS 4 01 Aug 16:32:23 16:35:28 18° 91° (E) 16:38:42
PCSat 01 Aug 16:41:26 16:43:36 12° 36° (NE) 16:45:59 145.827
STARS 01 Aug 16:46:30 16:50:54 66° 286° (WNW) 16:55:17 437.465
JAS-2 01 Aug 16:59:12 17:03:42 20° 274° (W) 17:08:19 435.910
KKS-1 01 Aug 17:15:17 17:18:43 21° 293° (WNW) 17:22:03 437.445
GONETS M04 01 Aug 17:19:47 17:28:24 62° 77° (ENE) 17:37:03
CUTE-I 01 Aug 17:20:54 17:24:50 22° 64° (ENE) 17:28:55 437.470
HORYU 2 01 Aug 17:20:58 17:23:44 16° 269° (W) 17:26:21 437.375
VERMONT LUNAR 01 Aug 17:49:07 17:51:10 16° 151° (SSE) 17:53:17 437.305
AO-7 01 Aug 17:59:30 18:05:10 18° 272° (W) 18:10:23 29.400- 29.500
Cubesat XI-IV 01 Aug 18:03:36 18:08:46 51° 72° (ENE) 18:13:59 437.490
MOZHAYETS 4 01 Aug 18:08:33 18:12:58 45° 288° (WNW) 18:17:20
SO-50 01 Aug 18:10:55 18:15:50 59° 53° (NE) 18:20:39 436.795
PCSat 01 Aug 18:22:51 18:28:15 62° 58° (ENE) 18:33:36 145.827
CUBESAT XI-V 01 Aug 18:27:14 18:30:57 24° 93° (E) 18:34:44 437.345
Cosmos 2499 01 Aug 18:40:24 18:48:50 51° 75° (ENE) 18:57:27 435.465 / 435.565
BRITE-PL 01 Aug 18:51:52 18:54:24 16° 67° (ENE) 18:57:02 437.365/2234.400
CUTE-I 01 Aug 18:59:22 19:04:36 51° 260° (W) 19:09:50 437.470
GOMX 1 01 Aug 19:01:34 19:02:38 11° 64° (ENE) 19:03:55 467.674
HO-68 01 Aug 19:08:30 19:13:23 21° 57° (ENE) 19:18:32 435.675
STRAND 1 01 Aug 19:09:19 19:13:01 21° 92° (E) 19:16:51 437.568
GONETS M04 01 Aug 19:17:33 19:24:44 29° 276° (W) 19:31:41
PRISM 01 Aug 19:19:59 19:22:46 18° 92° (E) 19:25:38 437.425
VERMONT LUNAR 01 Aug 19:24:25 19:27:32 53° 166° (SSE) 19:30:39 437.305
Cubesat XI-IV 01 Aug 19:45:12 19:49:14 21° 269° (W) 19:53:06 437.490
PHONESAT 2.4 01 Aug 19:47:45 19:50:23 20° 152° (SSE) 19:53:03 2401.200-2431.200
SO-50 01 Aug 19:52:37 19:55:58 18° 250° (WSW) 19:59:05 436.795
RS-15 01 Aug 20:01:34 20:08:18 20° 101° (ESE) 20:15:50 29.354- 29.394
CUBESAT XI-V 01 Aug 20:04:19 20:08:27 33° 290° (WNW) 20:12:31 437.345
PCSat 01 Aug 20:07:29 20:11:12 18° 254° (WSW) 20:14:42 145.827
COMPASS 1 01 Aug 20:19:06 20:22:29 24° 69° (ENE) 20:25:56 437.405
DOVE 4 01 Aug 20:21:50 20:25:50 49° 74° (ENE) 20:29:52 437.250
CINEMA 3 01 Aug 20:27:29 20:30:50 25° 69° (ENE) 20:34:20 145.822/145.860
BRITE-PL 01 Aug 20:28:28 20:32:42 45° 261° (W) 20:36:45 437.365/2234.400
Cosmos 2499 01 Aug 20:33:56 20:41:49 37° 273° (W) 20:49:36 435.465 / 435.565
SEEDS 01 Aug 20:34:23 20:38:25 44° 73° (ENE) 20:42:31 437.485
GOMX 1 01 Aug 20:36:09 20:40:21 65° 259° (W) 20:44:29 467.674
CUTE 1.7 + AOD 2 01 Aug 20:38:03 20:42:15 62° 75° (ENE) 20:46:32 437.475
UWE-3 01 Aug 20:39:12 20:40:57 13° 64° (ENE) 20:42:56 435.000/436.395/437.385
DELFI C3 01 Aug 20:44:03 20:45:16 11° 64° (ENE) 20:46:42 145.870
Oscar 11 01 Aug 20:45:47 20:48:50 19° 67° (ENE) 20:51:59 145.826/435.025
CANX-2 01 Aug 20:46:27 20:50:44 86° 77° (ENE) 20:55:04 2200.000
STRAND 1 01 Aug 20:47:37 20:52:31 47° 289° (WNW) 20:57:22 437.568
HO-68 01 Aug 20:53:15 21:00:25 81° 255° (WSW) 21:07:37 435.675
CUBEBUG 2 01 Aug 20:54:20 20:57:37 23° 68° (ENE) 21:01:02 437.445
PRISM 01 Aug 20:54:34 20:58:21 36° 289° (WNW) 21:02:05 437.425
AAUSAT CUBESAT 2 01 Aug 20:59:09 21:03:15 57° 75° (ENE) 21:07:25 437.432
VERMONT LUNAR 01 Aug 21:00:59 21:04:11 76° 181° (S) 21:07:20 437.305
ISS 01 Aug 21:07:19 21:10:29 51° 140° (SE) 21:13:40 145.825
PHONESAT 2.4 01 Aug 21:24:32 21:27:59 59° 167° (SSE) 21:31:28 2401.200-2431.200
M-CUBED/EXP-1 PRIME 01 Aug 21:46:51 21:49:58 18° 95° (E) 21:53:11 437.505
ZACube-1 01 Aug 21:47:29 21:51:33 52° 74° (ENE) 21:55:45 437.345
COMPASS 1 01 Aug 21:54:21 21:58:02 28° 265° (W) 22:01:43 437.405
DOVE 4 01 Aug 22:02:02 22:04:01 13° 271° (W) 22:05:47 437.250
CINEMA 3 01 Aug 22:04:28 22:08:00 26° 266° (W) 22:11:33 145.822/145.860
50 SAT 01 Aug 22:06:41 22:09:00 16° 67° (ENE) 22:11:27 437.505
RS-15 01 Aug 22:08:15 22:19:10 85° 120° (ESE) 22:30:31 29.354- 29.394
FUNcube-1 01 Aug 22:08:44 22:12:56 89° 78° (ENE) 22:17:14 145.935
SEEDS 01 Aug 22:11:51 22:14:29 16° 270° (W) 22:16:59 437.485
UWE-3 01 Aug 22:12:52 22:17:00 60° 260° (W) 22:21:15 435.000/436.395/437.385
AUBIESAT-1 01 Aug 22:14:52 22:18:58 29° 99° (E) 22:22:59 437.475
DELFI C3 01 Aug 22:15:50 22:19:52 63° 260° (W) 22:23:55 145.870
CUTE 1.7 + AOD 2 01 Aug 22:17:08 22:18:40 11° 272° (W) 22:19:56 437.475
Oscar 11 01 Aug 22:20:40 22:24:44 39° 262° (W) 22:28:50 145.826/435.025
UKube-1 01 Aug 22:22:08 22:26:02 35° 70° (ENE) 22:29:59 .
HUMSAT D 01 Aug 22:28:33 22:32:38 62° 75° (ENE) 22:36:48 437.325/437.525
AISAT 01 Aug 22:29:51 22:33:35 28° 69° (ENE) 22:37:23 437.250
CUBEBUG 2 01 Aug 22:30:29 22:34:11 30° 265° (W) 22:37:56 437.445
AAUSAT CUBESAT 2 01 Aug 22:37:31 22:39:18 12° 272° (W) 22:40:50 437.432
VERMONT LUNAR 01 Aug 22:37:47 22:40:44 36° 200° (SSW) 22:43:40 437.305
CUBEBUG 1 01 Aug 22:42:20 22:45:34 21° 67° (ENE) 22:48:54 437.445
ISS 01 Aug 22:44:17 22:47:05 25° 338° (NNW) 22:49:52 145.825
HO-68 01 Aug 22:45:57 22:49:24 13° 275° (W) 22:52:20 435.675
AIST 1 01 Aug 22:49:34 22:53:11 27° 74° (ENE) 22:56:51
DX 1 01 Aug 22:50:51 22:55:12 80° 74° (ENE) 22:59:33 434.975-435.025
UNISAT 6 01 Aug 22:57:40 23:01:46 30° 95° (E) 23:05:56 437.425
PHONESAT 2.4 01 Aug 23:02:22 23:05:53 76° 185° (S) 23:09:23 2401.200-2431.200
POPSAT HIP 1 01 Aug 23:03:38 23:04:58 11° 88° (E) 23:06:32 437.405
VELOX 1 01 Aug 23:07:55 23:12:18 70° 75° (ENE) 23:16:41 145.980
QB50P2 01 Aug 23:10:38 23:12:58 15° 90° (E) 23:15:29 145.880/145.840
BEESAT 3 01 Aug 23:13:22 23:17:00 32° 116° (ESE) 23:20:42 437.485
SPROUT 01 Aug 23:16:28 23:18:46 15° 65° (ENE) 23:21:14 437.525
M-CUBED/EXP-1 PRIME 01 Aug 23:20:22 23:25:04 53° 293° (WNW) 23:29:38 437.505
Cosmos 2491 01 Aug 23:22:00 23:30:30 55° 76° (ENE) 23:39:01 435.465 / 435.565
ESTCUBE 1 01 Aug 23:22:22 23:26:52 69° 74° (ENE) 23:31:24 437.505/2401.250
ZACube-1 01 Aug 23:26:15 23:28:21 13° 272° (W) 23:30:14 437.345
TISAT 1 01 Aug 23:26:26 23:27:41 11° 63° (ENE) 23:29:08 437.305
DUCHIFAT 1 01 Aug 23:33:28 23:36:55 24° 94° (E) 23:40:25 145.980
QB50P1 01 Aug 23:37:10 23:40:50 28° 95° (E) 23:44:32 145.935-145.965
NANOSAT C BR1 01 Aug 23:38:05 23:41:45 28° 95° (E) 23:45:27 145.865
50 SAT 01 Aug 23:39:36 23:43:16 39° 262° (W) 23:46:59 437.505
TIGRISAT 01 Aug 23:40:16 23:44:59 80° 101° (E) 23:49:42 435.000
ANTELSAT 01 Aug 23:42:24 23:47:08 87° 106° (ESE) 23:51:52 437.575/2403.000
YUBILEINY 01 Aug 23:44:04 23:51:20 32° 85° (E) 23:58:52 435.215
AUBIESAT-1 01 Aug 23:49:22 23:53:37 32° 296° (WNW) 23:57:43 437.475
UKube-1 01 Aug 23:58:58 00:02:17 21° 267° (W) 00:05:29 .
AISAT 02 Aug 00:06:23 00:10:08 26° 265° (W) 00:13:50 437.250
HUMSAT D 02 Aug 00:07:46 00:08:53 11° 273° (W) 00:09:44 437.325/437.525
BEESAT 2 02 Aug 00:11:53 00:15:59 76° 303° (WNW) 00:20:07 435.950
AIST 2 02 Aug 00:12:48 00:16:13 25° 114° (ESE) 00:19:45 435.215
CUBEBUG 1 02 Aug 00:17:44 00:21:45 35° 263° (W) 00:25:43 437.445
POLYITAN 1 02 Aug 00:20:15 00:24:34 89° 95° (E) 00:28:52 437.675
ISS 02 Aug 00:22:34 00:24:20 14° 357° (N) 00:26:07 145.825
RS-15 02 Aug 00:23:17 00:33:08 34° 328° (NNW) 00:43:12 29.354- 29.394
BEESAT 02 Aug 00:25:41 00:25:48 10° 60° (ENE) 00:26:11 436.000
AIST 1 02 Aug 00:27:19 00:30:45 23° 270° (W) 00:34:06
UNISAT 6 02 Aug 00:34:25 00:38:29 29° 291° (WNW) 00:42:29 437.425
BUGSAT 1 02 Aug 00:36:56 00:41:01 83° 102° (ESE) 00:45:08 437.445
POPSAT HIP 1 02 Aug 00:37:05 00:41:18 61° 286° (WNW) 00:45:30 437.405
PHONESAT 2.4 02 Aug 00:40:25 00:43:40 36° 201° (SSW) 00:46:55 2401.200-2431.200
SWISSCUBE 02 Aug 00:43:15 00:46:15 17° 64° (ENE) 00:49:24 437.505
QB50P2 02 Aug 00:45:03 00:49:10 47° 287° (WNW) 00:53:17 145.880/145.840
VELOX 1 02 Aug 00:48:21 00:49:25 11° 272° (W) 00:50:11 145.980
SPROUT 02 Aug 00:50:18 00:54:28 51° 260° (W) 00:58:39 437.525
BEESAT 3 02 Aug 00:51:31 00:54:59 25° 313° (NW) 00:58:25 437.485
TISAT 1 02 Aug 00:58:48 01:02:57 67° 259° (WSW) 01:07:07 437.305
ESTCUBE 1 02 Aug 01:02:45 01:04:18 11° 272° (W) 01:05:34 437.505/2401.250
ITUPSAT 1 02 Aug 01:03:44 01:07:31 24° 67° (ENE) 01:11:24 437.325
DUCHIFAT 1 02 Aug 01:09:01 01:12:42 28° 290° (WNW) 01:16:20 145.980
QB50P1 02 Aug 01:13:05 01:16:37 25° 291° (WNW) 01:20:04 145.935-145.965
NANOSAT C BR1 02 Aug 01:13:58 01:17:29 25° 291° (WNW) 01:20:56 145.865
TIGRISAT 02 Aug 01:19:18 01:21:09 12° 298° (WNW) 01:22:47 435.000
Cosmos 2491 02 Aug 01:19:32 01:27:01 32° 275° (W) 01:34:17 435.465 / 435.565
ANTELSAT 02 Aug 01:21:52 01:23:17 11° 298° (WNW) 01:24:26 437.575/2403.000
YUBILEINY 02 Aug 01:39:17 01:47:48 55° 284° (WNW) 01:56:22 435.215
O/OREOS (USA 219) 02 Aug 01:40:56 01:45:21 65° 109° (ESE) 01:49:50 437.305
AIST 2 02 Aug 01:50:45 01:54:39 34° 310° (NW) 01:58:34 435.215
BEESAT 2 02 Aug 01:53:28 01:54:48 11° 324° (NW) 01:55:59 435.950
BEESAT 02 Aug 01:58:09 02:02:56 83° 75° (ENE) 02:07:46 436.000
ISS 02 Aug 01:59:11 02:01:41 20° 17° (NNE) 02:04:13 145.825
Gurwin Techsat 1B 02 Aug 02:07:37 02:09:50 13° 87° (E) 02:12:21 435.225
STARS 02 Aug 02:10:26 02:11:38 11° 62° (ENE) 02:13:04 437.465
SWISSCUBE 02 Aug 02:18:59 02:23:42 56° 260° (W) 02:28:26 437.505
ITAMSAT 1 02 Aug 02:23:58 02:27:00 16° 89° (E) 02:30:14 435.822/435.867
JAS-2 02 Aug 02:24:18 02:26:17 11° 80° (E) 02:28:55 435.910
KKS-1 02 Aug 02:36:26 02:40:24 34° 70° (ENE) 02:44:26 437.445
Oscar 19 02 Aug 02:38:40 02:43:53 86° 100° (E) 02:49:06 437.125/150
ITUPSAT 1 02 Aug 02:40:45 02:45:14 38° 263° (W) 02:49:42 437.325
RS-15 02 Aug 02:42:10 02:50:21 22° 2° (N) 02:58:49 29.354- 29.394
Cosmos 2504 02 Aug 02:44:41 02:51:31 54° 91° (E) 02:58:55 435.465 / 435.565
O/OREOS (USA 219) 02 Aug 03:22:44 03:25:19 15° 309° (NW) 03:27:45 437.305
MOZHAYETS 4 02 Aug 03:34:42 03:37:48 18° 66° (ENE) 03:41:03
ISS 02 Aug 03:35:12 03:38:29 88° 218° (SW) 03:41:45 145.825
STARS 02 Aug 03:43:10 03:47:31 75° 258° (WSW) 03:51:55 437.465
Gurwin Techsat 1B 02 Aug 03:45:12 03:50:32 77° 285° (WNW) 03:55:50 435.225
YUBILEINY 02 Aug 03:46:10 03:47:18 10° 310° (NW) 03:47:42 435.215
CUSAT 1 02 Aug 03:58:57 04:00:59 18° 96° (E) 04:02:58 437.405
ITAMSAT 1 02 Aug 04:01:53 04:07:00 61° 288° (WNW) 04:12:05 435.822/435.867
AO-7 02 Aug 04:05:04 04:12:00 30° 94° (E) 04:19:07 29.400- 29.500
JAS-2 02 Aug 04:05:07 04:12:56 65° 100° (E) 04:20:36 435.910
KKS-1 02 Aug 04:13:40 04:17:09 22° 267° (W) 04:20:32 437.445
Oscar 19 02 Aug 04:20:12 04:22:36 13° 299° (WNW) 04:24:45 437.125/150
GONETS M04 02 Aug 04:31:01 04:33:38 12° 76° (ENE) 04:36:58
Cosmos 2504 02 Aug 04:38:06 04:44:14 28° 293° (WNW) 04:50:34 435.465 / 435.565
RS-15 02 Aug 04:56:59 05:07:26 37° 35° (NE) 05:18:27 29.354- 29.394
HORYU 2 02 Aug 05:09:49 05:14:21 82° 285° (WNW) 05:18:51 437.375
MOZHAYETS 4 02 Aug 05:10:12 05:14:41 47° 262° (W) 05:19:12
DANDE 02 Aug 05:28:00 05:30:46 27° 282° (WNW) 05:33:10 436.750
Gurwin Techsat 1B 02 Aug 05:28:21 05:29:44 11° 301° (WNW) 05:30:47 435.225
CUBESAT XI-V 02 Aug 05:30:46 05:34:33 25° 68° (ENE) 05:38:24 437.345
JAS-2 02 Aug 05:50:53 05:57:27 30° 297° (WNW) 06:03:48 435.910
AO-7 02 Aug 05:57:09 06:05:21 62° 293° (WNW) 06:13:28 29.400- 29.500
PRISM 02 Aug 06:10:46 06:13:04 15° 65° (ENE) 06:15:31 437.425
GONETS M04 02 Aug 06:20:28 06:29:04 70° 94° (E) 06:37:43
Cubesat XI-IV 02 Aug 06:21:41 06:25:26 20° 91° (E) 06:29:22 437.490
STRAND 1 02 Aug 06:25:03 06:29:29 31° 68° (ENE) 06:34:00 437.568
CUBESAT XI-V 02 Aug 07:07:36 07:11:53 33° 264° (W) 07:16:05 437.345
RS-15 02 Aug 07:09:29 07:21:18 81° 240° (WSW) 07:33:31 29.354- 29.394
CUTE-I 02 Aug 07:16:12 07:21:30 64° 101° (E) 07:26:46 437.470
Cosmos 2499 02 Aug 07:17:47 07:24:21 37° 87° (E) 07:31:32 435.465 / 435.565
BEESAT 3 02 Aug 07:31:46 07:35:00 23° 46° (NE) 07:38:15 437.485
PRISM 02 Aug 07:44:03 07:48:08 49° 260° (W) 07:52:13 437.425
AO-7 02 Aug 07:52:23 07:56:40 15° 313° (NW) 08:00:32 29.400- 29.500
Cubesat XI-IV 02 Aug 08:00:44 08:05:55 52° 289° (WNW) 08:11:02 437.490
STRAND 1 02 Aug 08:04:02 08:08:39 32° 264° (W) 08:13:14 437.568
GONETS M04 02 Aug 08:19:46 08:26:50 26° 296° (WNW) 08:33:37
DOVE 4 02 Aug 08:21:08 08:23:41 15° 90° (E) 08:26:32 437.250
HO-68 02 Aug 08:22:19 08:27:00 19° 89° (E) 08:32:02 435.675
CUTE 1.7 + AOD 2 02 Aug 08:25:51 08:26:42 11° 87° (E) 08:27:50 437.475
SO-50 02 Aug 08:26:40 08:29:51 19° 111° (ESE) 08:33:16 436.795
BEESAT 2 02 Aug 08:30:53 08:34:57 65° 56° (NE) 08:38:56 435.950
BRITE-PL 02 Aug 08:31:54 08:36:12 50° 99° (E) 08:40:50 437.365/2234.400
CANX-2 02 Aug 08:33:03 08:35:29 15° 90° (E) 08:38:04 2200.000
AIST 2 02 Aug 08:34:11 08:37:16 20° 43° (NE) 08:40:23 435.215
M-CUBED/EXP-1 PRIME 02 Aug 08:34:43 08:37:48 21° 60° (ENE) 08:41:10 437.505
GOMX 1 02 Aug 08:36:59 08:41:07 34° 97° (E) 08:45:34 467.674
CUTE-I 02 Aug 08:57:34 09:01:08 18° 298° (WNW) 09:04:30 437.470
AUBIESAT-1 02 Aug 09:02:09 09:05:52 34° 64° (ENE) 09:09:54 437.475
PCSat 02 Aug 09:04:24 09:09:40 56° 115° (ESE) 09:15:00 145.827
BEESAT 3 02 Aug 09:09:18 09:13:02 36° 244° (WSW) 09:16:41 437.485
Cosmos 2499 02 Aug 09:10:23 09:17:25 43° 288° (WNW) 09:24:57 435.465 / 435.565
RS-15 02 Aug 09:24:15 09:32:21 20° 259° (WSW) 09:39:46 29.354- 29.394
COMPASS 1 02 Aug 09:37:02 09:41:05 43° 98° (E) 09:45:06 437.405
ZACube-1 02 Aug 09:38:12 09:39:22 11° 87° (E) 09:40:49 437.345
SEEDS 02 Aug 09:53:58 09:58:16 88° 102° (ESE) 10:02:30 437.485
YUBILEINY 02 Aug 09:54:24 09:59:05 16° 57° (ENE) 10:04:19 435.215
DELFI C3 02 Aug 09:55:46 09:58:21 17° 91° (E) 10:01:04 145.870
UNISAT 6 02 Aug 09:57:06 10:00:41 26° 68° (ENE) 10:04:24 437.425
DOVE 4 02 Aug 09:57:14 10:01:48 58° 285° (WNW) 10:06:37 437.250
CINEMA 3 02 Aug 09:57:34 10:02:16 66° 101° (ESE) 10:07:09 145.822/145.860
FUNcube-1 02 Aug 09:57:43 10:00:47 18° 91° (E) 10:04:01 145.935
CUTE 1.7 + AOD 2 02 Aug 09:58:52 10:03:09 66° 285° (WNW) 10:07:23 437.475
UWE-3 02 Aug 10:02:36 10:06:31 28° 94° (E) 10:10:33 435.000/436.395/437.385
QB50P2 02 Aug 10:04:50 10:06:23 12° 64° (ENE) 10:08:09 145.880/145.840
SO-50 02 Aug 10:05:19 10:10:00 55° 307° (NW) 10:14:51 436.795
CANX-2 02 Aug 10:07:34 10:11:43 47° 287° (WNW) 10:15:49 2200.000
Oscar 11 02 Aug 10:07:45 10:11:46 36° 97° (E) 10:15:47 145.826/435.025
HO-68 02 Aug 10:08:23 10:15:36 78° 287° (WNW) 10:22:46 435.675
M-CUBED/EXP-1 PRIME 02 Aug 10:08:32 10:12:19 38° 259° (WSW) 10:16:25 437.505
BEESAT 2 02 Aug 10:11:10 10:12:30 11° 251° (WSW) 10:13:36 435.950
BRITE-PL 02 Aug 10:11:40 10:14:30 16° 293° (WNW) 10:17:16 437.365/2234.400
AIST 2 02 Aug 10:12:04 10:16:07 48° 242° (WSW) 10:20:04 435.215
O/OREOS (USA 219) 02 Aug 10:12:51 10:15:23 15° 51° (NE) 10:18:06 437.305
HUMSAT D 02 Aug 10:15:11 10:15:51 10° 87° (E) 10:16:48 437.325/437.525
GOMX 1 02 Aug 10:15:26 10:19:10 25° 290° (WNW) 10:22:59 467.674
AAUSAT CUBESAT 2 02 Aug 10:17:17 10:21:30 76° 284° (WNW) 10:25:40 437.432
CUBEBUG 2 02 Aug 10:20:19 10:24:52 54° 99° (E) 10:29:32 437.445
DUCHIFAT 1 02 Aug 10:26:26 10:29:20 19° 67° (ENE) 10:32:22 145.980
QB50P1 02 Aug 10:30:23 10:33:34 22° 68° (ENE) 10:36:52 145.935-145.965
NANOSAT C BR1 02 Aug 10:31:05 10:34:16 22° 68° (ENE) 10:37:33 145.865
Cosmos 2491 02 Aug 10:35:18 10:36:04 10° 75° (ENE) 10:37:38 435.465 / 435.565
AUBIESAT-1 02 Aug 10:37:27 10:40:42 22° 263° (W) 10:44:04 437.475
TIGRISAT 02 Aug 10:39:02 10:43:20 69° 75° (ENE) 10:47:48 435.000
DX 1 02 Aug 10:40:46 10:42:49 13° 90° (E) 10:45:04 434.975-435.025
ANTELSAT 02 Aug 10:41:20 10:45:42 77° 76° (ENE) 10:50:11 437.575/2403.000
PCSat 02 Aug 10:49:05 10:53:29 24° 314° (NW) 10:57:49 145.827
VELOX 1 02 Aug 11:00:03 11:01:59 13° 89° (E) 11:04:08 145.980
ZACube-1 02 Aug 11:11:43 11:16:16 72° 284° (WNW) 11:20:51 437.345
POLYITAN 1 02 Aug 11:13:05 11:17:14 66° 75° (ENE) 11:21:26 437.675
COMPASS 1 02 Aug 11:13:39 11:16:25 17° 294° (WNW) 11:19:03 437.405
50 SAT 02 Aug 11:15:08 11:18:14 22° 93° (E) 11:21:23 437.505
ESTCUBE 1 02 Aug 11:16:32 11:18:51 14° 89° (E) 11:21:23 437.505/2401.250
AIST 1 02 Aug 11:20:07 11:22:46 17° 88° (E) 11:25:35
BUGSAT 1 02 Aug 11:26:54 11:30:51 56° 74° (ENE) 11:34:48 437.445
POPSAT HIP 1 02 Aug 11:29:34 11:33:46 82° 257° (WSW) 11:38:00 437.405
DELFI C3 02 Aug 11:29:50 11:33:37 37° 288° (WNW) 11:37:19 145.870
FUNcube-1 02 Aug 11:33:00 11:37:20 44° 287° (WNW) 11:41:40 145.935
UNISAT 6 02 Aug 11:33:33 11:37:23 29° 265° (W) 11:41:15 437.425
CINEMA 3 02 Aug 11:36:23 11:39:03 15° 295° (WNW) 11:41:31 145.822/145.860
QB50P2 02 Aug 11:37:38 11:41:48 63° 259° (W) 11:46:00 145.880/145.840
UWE-3 02 Aug 11:38:59 11:43:02 30° 290° (WNW) 11:47:03 435.000/436.395/437.385
Oscar 11 02 Aug 11:44:25 11:47:45 21° 293° (WNW) 11:50:58 145.826/435.025
UKube-1 02 Aug 11:44:56 11:49:14 63° 101° (E) 11:53:31 .
HUMSAT D 02 Aug 11:47:48 11:52:08 69° 285° (WNW) 11:56:25 437.325/437.525
YUBILEINY 02 Aug 11:48:57 11:57:49 76° 81° (E) 12:06:39 435.215
SO-50 02 Aug 11:49:59 11:51:43 11° 329° (NNW) 11:53:19 436.795
O/OREOS (USA 219) 02 Aug 11:50:47 11:55:21 65° 250° (WSW) 11:59:53 437.305
AISAT 02 Aug 11:55:58 12:00:20 56° 101° (E) 12:04:41 437.250
HO-68 02 Aug 11:58:07 12:02:20 16° 306° (NW) 12:06:13 435.675
CUBEBUG 2 02 Aug 11:58:08 12:01:12 17° 294° (WNW) 12:04:07 437.445
DUCHIFAT 1 02 Aug 12:01:02 12:04:55 36° 263° (W) 12:08:48 145.980
QB50P1 02 Aug 12:05:31 12:09:17 31° 264° (W) 12:13:03 145.935-145.965
CUBEBUG 1 02 Aug 12:06:05 12:10:09 39° 98° (E) 12:14:14 437.445
NANOSAT C BR1 02 Aug 12:06:11 12:09:57 31° 264° (W) 12:13:42 145.865
DX 1 02 Aug 12:15:12 12:19:27 54° 287° (WNW) 12:23:41 434.975-435.025
Oscar 19 02 Aug 12:18:54 12:21:54 16° 62° (ENE) 12:25:06 437.125/150
TIGRISAT 02 Aug 12:19:46 12:20:43 10° 273° (W) 12:21:23 435.000
Cosmos 2491 02 Aug 12:22:48 12:31:22 63° 93° (E) 12:39:59 435.465 / 435.565
